This demonstration page uses our WeatherBlox Daily Observations layout. Learn more.

Left ArrowRight Arrow

39.29038, -76.61219

Hourly Observations for June 17, 2020

Temp ( °F °C ) Dew Point ( °F °C ) Humidity (%) Winds ( mph kmh ) Pressure ( in mb ) Visibility ( mi km ) Precip ( " mm )
12:54 am 00:54 Cloudy 67 19.4 54 12.2 63 63 ENE 15 24 30.23 1024 10 16 0.00 0.00
1:54 am 01:54 Cloudy 66 18.9 55 12.8 68 68 NE 12 19 30.21 1023 10 16 0.00 0.00
2:54 am 02:54 Cloudy 65 18.3 55 12.8 70 70 ENE 12 19 30.20 1023 10 16 0.00 0.00
3:54 am 03:54 Cloudy 65 18.3 55 12.8 70 70 NE 12 19 30.16 1022 10 16 0.00 0.00
4:54 am 04:54 Cloudy 64 17.8 54 12.2 70 70 NE 14 22 30.19 1022 10 16 0.00 0.00
5:48 am 05:48 Mostly Cloudy 64 18 55 13 73 73 NE 9 15 30.20 1023 10 16 0.00 0.00
5:54 am 05:54 Mostly Cloudy 65 18.3 55 12.8 70 70 NE 13 20 30.19 1022 10 16 0.00 0.00
6:54 am 06:54 Cloudy 65 18.3 55 12.8 70 70 NE 8 13 30.18 1022 10 16 0.00 0.00
7:54 am 07:54 Cloudy 65 18.3 57 13.9 76 76 ENE 14 22 30.19 1023 10 16 0.00 0.00
8:54 am 08:54 Cloudy 66 18.9 58 14.4 75 75 NE 10 17 30.21 1023 10 16 0.00 0.00
9:54 am 09:54 Cloudy 67 19.4 58 14.4 73 73 NE 12 19 30.19 1022 10 16 0.00 0.00
10:54 am 10:54 Cloudy 68 20 59 15 73 73 ENE 14 22 30.21 1023 10 16 0.00 0.00
11:54 am 11:54 Mostly Cloudy 70 21.1 60 15.6 71 71 NE 18 30 30.18 1022 10 16 0.00 0.00
12:54 pm 12:54 Cloudy 72 22.2 61 16.1 68 68 ENE 14 22 30.18 1022 10 16 0.00 0.00
1:54 pm 13:54 Cloudy 73 22.8 61 16.1 66 66 ENE 17 28 30.17 1022 10 16 0.00 0.00
2:54 pm 14:54 Cloudy 73 22.8 61 16.1 66 66 ENE 18 30 30.16 1021 10 16 0.00 0.00
3:54 pm 15:54 Cloudy 73 22.8 62 16.7 69 69 E 17 28 30.15 1021 10 16 0.00 0.00
4:25 pm 16:25 Cloudy 72 22.2 62 16.7 71 71 ENE 18 30 30.15 1021 10 16 0.00 0.00
4:54 pm 16:54 Cloudy with Light Rain 72 22.2 63 17.2 73 73 NE 18 30 30.14 1021 10 16 0.00 0.00
5:13 pm 17:13 Cloudy 72 22.2 63 17.2 73 73 ENE 15 24 30.13 1020 10 16 0.00 0.00
5:54 pm 17:54 Cloudy 73 22.8 63 17.2 71 71 ENE 18 30 30.13 1020 10 16 0.00 0.00
6:45 pm 18:45 Cloudy with Light Rain 70 21.1 65 18.3 84 84 ENE 13 20 30.12 1020 8 13 0.01 0.25
6:54 pm 18:54 Cloudy with Light Rain 70 21.1 65 18.3 84 84 NE 12 19 30.11 1020 8 13 0.01 0.25
7:54 pm 19:54 Cloudy with Rain 70 21.1 65 18.3 84 84 NE 10 17 30.12 1020 4 6 0.02 0.51
8:11 pm 20:11 Cloudy with Heavy Rain 69 20.6 66 18.9 90 90 NE 13 20 30.12 1020 2 3 0.08 2.03
8:17 pm 20:17 Cloudy with Light Rain 69 20.6 65 18.3 87 87 ENE 16 26 30.12 1020 3 5 0.09 2.29
8:54 pm 20:54 Cloudy with Light Rain 69 20.6 66 18.9 90 90 ENE 12 19 30.11 1020 8 13 0.16 4.06
9:54 pm 21:54 Cloudy 69 20.6 65 18.3 87 87 ENE 12 19 30.12 1020 10 16 0.00 0.00
10:54 pm 22:54 Cloudy with Light Rain 68 20 65 18.3 90 90 E 13 20 30.11 1020 6 10 0.02 0.51
11:16 pm 23:16 Cloudy with Rain 68 20 65 18.3 90 90 E 12 19 30.11 1020 7 11 0.02 0.51
11:54 pm 23:54 Cloudy with Rain 68 20 65 18.3 90 90 E 12 19 30.10 1019 4 6 0.18 4.57

Powered by AerisWeather